TimeCST,TemperatureF,Dew PointF,Humidity,Sea Level PressureIn,VisibilityMPH,Wind Direction,Wind SpeedMPH,Gust SpeedMPH,PrecipitationIn,Events,Conditions,WindDirDegrees,DateUTC
12:53 AM,43.0,39.9,89,30.20,10.0,Calm,Calm,-,N/A,,Clear,0,2013-01-20 06:53:00
1:53 AM,39.0,37.9,96,30.20,10.0,Calm,Calm,-,N/A,,Clear,0,2013-01-20 07:53:00
2:53 AM,37.0,36.0,96,30.19,10.0,Calm,Calm,-,N/A,,Clear,0,2013-01-20 08:53:00
3:53 AM,34.0,34.0,100,30.19,10.0,Calm,Calm,-,N/A,,Clear,0,2013-01-20 09:53:00
4:38 AM,33.8,33.8,100,30.18,10.0,Calm,Calm,-,N/A,,Partly Cloudy,0,2013-01-20 10:38:00
4:53 AM,34.0,33.1,96,30.18,10.0,Calm,Calm,-,N/A,,Clear,0,2013-01-20 10:53:00
5:53 AM,30.0,30.0,100,30.20,10.0,Calm,Calm,-,N/A,,Clear,0,2013-01-20 11:53:00
6:38 AM,30.2,30.2,100,30.18,4.0,Calm,Calm,-,N/A,,Clear,0,2013-01-20 12:38:00
6:53 AM,30.9,30.0,96,30.21,3.0,Calm,Calm,-,N/A,,Clear,0,2013-01-20 12:53:00
7:19 AM,28.4,28.4,100,30.19,1.0,Calm,Calm,-,N/A,,Clear,0,2013-01-20 13:19:00
7:53 AM,32.0,30.9,96,30.20,1.0,Calm,Calm,-,N/A,,Clear,0,2013-01-20 13:53:00
8:42 AM,35.6,35.6,100,30.19,0.5,Calm,Calm,-,N/A,Fog,Fog,0,2013-01-20 14:42:00
8:53 AM,36.0,36.0,100,30.21,0.5,Calm,Calm,-,N/A,Fog,Fog,0,2013-01-20 14:53:00
9:26 AM,39.2,39.2,100,30.20,1.0,Calm,Calm,-,N/A,,Clear,0,2013-01-20 15:26:00
9:46 AM,41.0,39.2,93,30.21,2.5,Calm,Calm,-,N/A,,Clear,0,2013-01-20 15:46:00
9:53 AM,42.1,41.0,96,30.23,3.0,Calm,Calm,-,N/A,,Clear,0,2013-01-20 15:53:00
10:53 AM,51.1,43.0,74,30.22,7.0,Calm,Calm,-,N/A,,Clear,0,2013-01-20 16:53:00
11:53 AM,57.0,43.0,59,30.19,7.0,Calm,Calm,-,N/A,,Clear,0,2013-01-20 17:53:00
12:53 PM,64.0,43.0,46,30.14,10.0,ESE,6.9,-,N/A,,Clear,110,2013-01-20 18:53:00
1:53 PM,66.0,41.0,40,30.10,10.0,SE,6.9,-,N/A,,Clear,140,2013-01-20 19:53:00
2:53 PM,68.0,41.0,37,30.09,10.0,SSE,9.2,-,N/A,,Clear,150,2013-01-20 20:53:00
3:53 PM,68.0,39.0,35,30.08,10.0,South,6.9,-,N/A,,Clear,180,2013-01-20 21:53:00
4:53 PM,66.9,39.0,36,30.09,10.0,South,3.5,-,N/A,,Clear,180,2013-01-20 22:53:00
5:53 PM,61.0,39.0,44,30.10,10.0,Calm,Calm,-,N/A,,Clear,0,2013-01-20 23:53:00
6:53 PM,46.9,37.9,71,30.11,10.0,Calm,Calm,-,N/A,,Clear,0,2013-01-21 00:53:00
7:53 PM,45.0,37.9,76,30.12,10.0,Calm,Calm,-,N/A,,Clear,0,2013-01-21 01:53:00
8:53 PM,44.1,37.9,79,30.13,10.0,Calm,Calm,-,N/A,,Clear,0,2013-01-21 02:53:00
9:53 PM,43.0,37.0,80,30.13,10.0,Calm,Calm,-,N/A,,Clear,0,2013-01-21 03:53:00
10:53 PM,41.0,37.0,86,30.14,10.0,Calm,Calm,-,N/A,,Clear,0,2013-01-21 04:53:00
11:53 PM,37.9,35.1,89,30.14,10.0,Calm,Calm,-,N/A,,Clear,0,2013-01-21 05:53:00